CDT,Max TemperatureF,Mean TemperatureF,Min TemperatureF,Max Dew PointF,MeanDew PointF,Min DewpointF,Max Humidity, Mean Humidity, Min Humidity, Max Sea Level PressureIn, Mean Sea Level PressureIn, Min Sea Level PressureIn, Max VisibilityMiles, Mean VisibilityMiles, Min VisibilityMiles, Max Wind SpeedMPH, Mean Wind SpeedMPH, Max Gust SpeedMPH,PrecipitationIn, CloudCover, Events, WindDirDegrees
2011-10-1,89,80,72,73,64,55,96,63,38,30.13,30.07,30.02,10,10,7,20,7,25,0.00,1,,62
2011-10-2,86,74,61,59,56,50,91,55,29,30.19,30.14,30.11,10,10,10,15,6,22,0.00,1,,66
2011-10-3,85,74,63,59,55,50,78,52,30,30.21,30.15,30.12,10,10,10,20,6,23,0.00,0,,88
2011-10-4,88,76,64,62,59,57,78,56,35,30.18,30.12,30.06,10,10,10,17,7,25,0.03,1,,67
2011-10-5,90,78,67,67,63,59,91,60,37,30.08,30.03,29.96,10,10,10,22,8,28,0.00,2,,108
2011-10-6,93,82,71,70,65,62,83,63,35,29.98,29.93,29.87,10,10,10,23,7,25,0.00,1,,118
2011-10-7,93,86,78,74,71,69,83,63,45,29.98,29.95,29.90,10,10,10,26,14,32,0.00,3,,131
2011-10-8,88,82,75,77,73,68,95,77,50,29.97,29.91,29.84,10,10,3,23,13,38,0.48,6,Rain-Thunderstorm,127
2011-10-9,79,74,69,75,72,69,100,95,82,29.96,29.89,29.82,10,10,0,21,8,28,1.42,4,Rain-Thunderstorm,43
2011-10-10,84,76,69,74,70,65,100,85,51,30.00,29.95,29.89,10,8,1,13,8,,0.00,6,,27
2011-10-11,85,77,69,74,70,67,100,83,56,29.95,29.90,29.83,10,8,2,13,4,20,0.00,2,,59
2011-10-12,94,81,68,74,69,62,100,73,34,29.84,29.79,29.71,10,9,2,17,6,22,0.00,0,,156
2011-10-13,92,82,73,78,63,34,100,66,13,29.95,29.87,29.81,10,8,0,17,7,24,0.00,2,Fog-Rain-Thunderstorm,55
2011-10-14,88,72,57,59,51,44,80,48,24,30.00,29.94,29.90,10,10,10,13,6,16,0.00,0,,44
2011-10-15,88,75,62,68,62,58,99,65,43,30.05,29.99,29.95,10,10,10,16,5,24,0.00,1,,74
2011-10-16,89,78,68,73,67,63,100,71,42,30.08,30.02,29.94,10,10,10,15,5,20,0.00,2,,81
2011-10-17,93,80,66,73,66,56,100,70,29,29.97,29.87,29.74,10,9,1,17,5,22,0.00,0,,169
2011-10-18,81,76,71,75,53,36,100,53,21,29.99,29.87,29.71,10,10,10,28,14,37,0.00,1,,343
2011-10-19,77,64,52,42,33,22,64,35,13,30.21,30.13,30.07,10,10,10,21,8,26,0.00,0,,330
2011-10-20,84,67,50,56,38,27,57,36,17,30.15,30.07,29.99,10,10,7,21,6,23,0.00,0,,159
2011-10-21,88,76,65,64,60,56,80,58,35,30.13,30.07,30.04,10,10,10,22,11,28,0.00,1,,149
2011-10-22,87,77,67,65,62,59,82,60,38,30.08,30.03,29.97,10,10,10,22,10,29,0.00,1,,145
2011-10-23,91,77,63,66,60,53,87,59,27,30.06,29.98,29.94,10,10,10,21,8,28,0.00,0,,163
2011-10-24,89,78,66,68,63,58,99,65,35,30.18,30.12,30.08,10,10,10,18,6,23,0.00,0,,162
2011-10-25,89,76,62,68,63,53,100,66,29,30.14,30.08,29.99,10,9,0,21,7,25,0.00,1,Fog,161
2011-10-26,90,78,65,68,62,55,100,61,31,30.00,29.91,29.83,10,10,10,21,10,25,0.00,0,,163
2011-10-27,91,80,68,70,65,58,98,65,32,29.88,29.81,29.75,10,10,7,18,9,23,0.00,1,,156
2011-10-28,71,64,57,50,44,39,66,51,31,30.22,30.13,29.99,10,10,10,24,20,32,0.00,4,,349
2011-10-29,71,57,43,43,38,32,84,52,24,30.35,30.25,30.13,10,10,10,13,4,,0.00,0,,23
2011-10-30,80,63,46,53,48,41,85,58,31,30.15,30.10,30.06,10,10,10,15,6,21,0.00,0,,91
2011-10-31,81,67,53,57,52,48,86,60,33,30.23,30.16,30.11,10,10,10,16,4,20,0.00,0,,77